Time,TemperatureF,DewpointF,PressureIn,WindDirection,WindDirectionDegrees,WindSpeedMPH,WindSpeedGustMPH,Humidity,HourlyPrecipIn,Conditions,Clouds,dailyrainin,SoftwareType,DateUTC
2013-02-12 00:00:00,51.7,48.3,29.93,WSW,248,3.0,0.0,88,0.00,,SKC,0.08,VWS V14.01,2013-02-12 05:00:00,
2013-02-12 00:04:00,51.7,48.0,29.93,NW,312,0.0,0.0,87,0.00,,SKC,0.00,VWS V14.01,2013-02-12 05:04:00,
2013-02-12 00:06:00,51.6,47.9,29.93,SW,219,0.0,0.0,87,0.00,,SKC,0.00,VWS V14.01,2013-02-12 05:06:00,
2013-02-12 00:12:00,51.4,47.0,29.92,WNW,298,1.0,0.0,85,0.00,,SKC,0.00,VWS V14.01,2013-02-12 05:12:00,
2013-02-12 00:18:00,51.2,46.5,29.92,WSW,246,0.0,0.0,84,0.00,,SKC,0.00,VWS V14.01,2013-02-12 05:18:00,
2013-02-12 00:24:00,51.0,45.7,29.92,NNW,335,0.0,0.0,82,0.00,,SKC,0.00,VWS V14.01,2013-02-12 05:24:00,
2013-02-12 00:30:00,50.9,45.3,29.93,West,259,1.0,0.0,81,0.00,,SKC,0.00,VWS V14.01,2013-02-12 05:30:00,
2013-02-12 00:36:00,50.7,45.1,29.93,West,259,1.0,0.0,81,0.00,,SKC,0.00,VWS V14.01,2013-02-12 05:36:00,
2013-02-12 00:41:00,50.6,45.3,29.94,West,279,0.0,0.0,82,0.00,,SKC,0.00,VWS V14.01,2013-02-12 05:41:00,
2013-02-12 00:46:00,50.5,45.2,29.94,SW,228,0.0,0.0,82,0.00,,SKC,0.00,VWS V14.01,2013-02-12 05:46:00,
2013-02-12 00:52:00,50.2,45.2,29.94,SW,224,1.0,0.0,83,0.00,,SKC,0.00,VWS V14.01,2013-02-12 05:52:00,
2013-02-12 00:58:00,49.9,45.0,29.94,SW,222,1.0,0.0,83,0.00,,SKC,0.00,VWS V14.01,2013-02-12 05:58:00,
2013-02-12 01:04:00,49.6,44.7,29.94,SSW,207,1.0,0.0,83,0.00,,SKC,0.00,VWS V14.01,2013-02-12 06:04:00,
2013-02-12 01:10:00,49.2,44.3,29.94,SW,220,0.0,0.0,83,0.00,,SKC,0.00,VWS V14.01,2013-02-12 06:10:00,
2013-02-12 01:16:00,48.8,43.9,29.94,SW,221,0.0,0.0,83,0.00,,SKC,0.00,VWS V14.01,2013-02-12 06:16:00,
2013-02-12 01:21:00,48.5,43.3,29.94,SSW,200,2.0,0.0,82,0.00,,SKC,0.00,VWS V14.01,2013-02-12 06:21:00,
2013-02-12 01:26:00,48.3,42.8,29.94,WSW,238,1.0,0.0,81,0.00,,SKC,0.00,VWS V14.01,2013-02-12 06:26:00,
2013-02-12 01:31:00,48.1,42.5,29.94,WSW,238,0.0,0.0,81,0.00,,SKC,0.00,VWS V14.01,2013-02-12 06:31:00,
2013-02-12 01:36:00,48.0,41.8,29.95,SSW,195,0.0,0.0,79,0.00,,SKC,0.00,VWS V14.01,2013-02-12 06:36:00,
2013-02-12 01:41:00,48.1,39.9,29.95,SW,226,1.0,0.0,73,0.00,,SKC,0.00,VWS V14.01,2013-02-12 06:41:00,
2013-02-12 01:46:00,48.6,38.9,29.96,WSW,242,1.0,0.0,69,0.00,,SKC,0.00,VWS V14.01,2013-02-12 06:46:00,
2013-02-12 01:51:00,49.0,37.8,29.95,WNW,295,2.0,0.0,65,0.00,,SKC,0.00,VWS V14.01,2013-02-12 06:51:00,
2013-02-12 01:56:00,49.2,37.2,29.95,WSW,254,1.0,0.0,63,0.00,,SKC,0.00,VWS V14.01,2013-02-12 06:56:00,
2013-02-12 02:01:00,49.3,36.8,29.96,WSW,242,1.0,0.0,62,0.00,,SKC,0.00,VWS V14.01,2013-02-12 07:01:00,
2013-02-12 02:06:00,49.2,36.8,29.96,SW,224,1.0,0.0,62,0.00,,SKC,0.00,VWS V14.01,2013-02-12 07:06:00,
2013-02-12 02:11:00,49.1,36.7,29.96,SW,226,0.0,0.0,62,0.00,,SKC,0.00,VWS V14.01,2013-02-12 07:11:00,
2013-02-12 02:16:00,48.8,36.8,29.96,SW,228,0.0,0.0,63,0.00,,SKC,0.00,VWS V14.01,2013-02-12 07:16:00,
2013-02-12 02:21:00,48.2,36.6,29.96,SW,228,0.0,0.0,64,0.00,,SKC,0.00,VWS V14.01,2013-02-12 07:21:00,
2013-02-12 02:26:00,47.8,36.2,29.96,SW,228,1.0,0.0,64,0.00,,SKC,0.00,VWS V14.01,2013-02-12 07:26:00,
2013-02-12 02:31:00,47.5,35.9,29.96,West,280,1.0,0.0,64,0.00,,SKC,0.00,VWS V14.01,2013-02-12 07:31:00,
2013-02-12 02:37:00,47.3,35.4,29.96,West,279,0.0,0.0,63,0.00,,SKC,0.00,VWS V14.01,2013-02-12 07:37:00,
2013-02-12 02:43:00,47.2,35.3,29.96,West,280,0.0,0.0,63,0.00,,SKC,0.00,VWS V14.01,2013-02-12 07:43:00,
2013-02-12 02:49:00,46.4,34.9,29.96,West,280,0.0,0.0,64,0.00,,SKC,0.00,VWS V14.01,2013-02-12 07:49:00,
2013-02-12 02:55:00,45.3,34.6,29.97,West,279,0.0,0.0,66,0.00,,SKC,0.00,VWS V14.01,2013-02-12 07:55:00,
2013-02-12 03:01:00,44.7,34.4,29.97,West,278,0.0,0.0,67,0.00,,SKC,0.00,VWS V14.01,2013-02-12 08:01:00,
2013-02-12 03:06:00,44.7,34.8,29.98,SW,231,1.0,0.0,68,0.00,,SKC,0.00,VWS V14.01,2013-02-12 08:06:00,
2013-02-12 03:11:00,45.1,34.0,29.98,WNW,303,2.0,0.0,65,0.00,,SKC,0.00,VWS V14.01,2013-02-12 08:11:00,
2013-02-12 03:17:00,46.0,32.9,29.98,SW,228,1.0,0.0,60,0.00,,SKC,0.00,VWS V14.01,2013-02-12 08:17:00,
2013-02-12 03:23:00,46.3,33.2,29.98,West,276,1.0,0.0,60,0.00,,SKC,0.00,VWS V14.01,2013-02-12 08:23:00,
2013-02-12 03:29:00,46.3,32.8,29.98,WNW,288,2.0,0.0,59,0.00,,SKC,0.00,VWS V14.01,2013-02-12 08:29:00,
2013-02-12 03:35:00,46.4,31.6,29.98,West,271,1.0,0.0,56,0.00,,SKC,0.00,VWS V14.01,2013-02-12 08:35:00,
2013-02-12 03:41:00,46.4,32.0,29.98,West,278,1.0,0.0,57,0.00,,SKC,0.00,VWS V14.01,2013-02-12 08:41:00,
2013-02-12 03:46:00,46.2,31.8,29.98,WNW,293,3.0,0.0,57,0.00,,SKC,0.00,VWS V14.01,2013-02-12 08:46:00,
2013-02-12 03:51:00,46.0,31.6,29.98,WNW,300,2.0,0.0,57,0.00,,SKC,0.00,VWS V14.01,2013-02-12 08:51:00,
2013-02-12 03:56:00,45.9,31.5,29.97,NW,323,0.0,0.0,57,0.00,,SKC,0.00,VWS V14.01,2013-02-12 08:56:00,
2013-02-12 04:01:00,45.5,31.2,29.97,West,269,0.0,0.0,57,0.00,,SKC,0.00,VWS V14.01,2013-02-12 09:01:00,
2013-02-12 04:07:00,45.0,30.7,29.97,NNW,337,1.0,0.0,57,0.00,,SKC,0.00,VWS V14.01,2013-02-12 09:07:00,
2013-02-12 04:13:00,44.7,30.4,29.97,NW,312,0.0,0.0,57,0.00,,SKC,0.00,VWS V14.01,2013-02-12 09:13:00,
2013-02-12 04:19:00,44.0,30.2,29.97,NW,312,0.0,0.0,58,0.00,,SKC,0.00,VWS V14.01,2013-02-12 09:19:00,
2013-02-12 04:25:00,43.6,29.8,29.98,NW,326,1.0,0.0,58,0.00,,SKC,0.00,VWS V14.01,2013-02-12 09:25:00,
2013-02-12 04:31:00,43.6,29.8,29.99,WNW,298,1.0,0.0,58,0.00,,SKC,0.00,VWS V14.01,2013-02-12 09:31:00,
2013-02-12 04:37:00,43.1,29.3,29.99,WNW,297,0.0,0.0,58,0.00,,SKC,0.00,VWS V14.01,2013-02-12 09:37:00,
2013-02-12 04:43:00,43.2,29.4,29.99,West,279,1.0,0.0,58,0.00,,SKC,0.00,VWS V14.01,2013-02-12 09:43:00,
2013-02-12 04:49:00,43.2,29.4,30.00,WNW,282,0.0,0.0,58,0.00,,SKC,0.00,VWS V14.01,2013-02-12 09:49:00,
2013-02-12 04:55:00,42.6,29.7,29.99,WNW,283,0.0,0.0,60,0.00,,SKC,0.00,VWS V14.01,2013-02-12 09:55:00,
2013-02-12 05:01:00,41.9,29.0,29.99,WNW,283,0.0,0.0,60,0.00,,SKC,0.00,VWS V14.01,2013-02-12 10:01:00,
2013-02-12 05:07:00,42.2,28.9,30.00,WNW,287,0.0,0.0,59,0.00,,SKC,0.00,VWS V14.01,2013-02-12 10:07:00,
2013-02-12 05:13:00,42.4,29.1,29.99,North,360,1.0,0.0,59,0.00,,SKC,0.00,VWS V14.01,2013-02-12 10:13:00,
2013-02-12 05:20:00,42.4,28.7,30.00,WNW,294,0.0,0.0,58,0.00,,SKC,0.00,VWS V14.01,2013-02-12 10:20:00,
2013-02-12 05:26:00,42.4,28.7,30.00,North,356,0.0,0.0,58,0.00,,SKC,0.00,VWS V14.01,2013-02-12 10:26:00,
2013-02-12 05:31:00,42.4,28.7,30.00,NW,304,2.0,0.0,58,0.00,,SKC,0.00,VWS V14.01,2013-02-12 10:31:00,
2013-02-12 05:38:00,42.3,28.2,30.00,NNW,328,1.0,0.0,57,0.00,,SKC,0.00,VWS V14.01,2013-02-12 10:38:00,
2013-02-12 05:44:00,42.3,28.6,30.00,WNW,288,0.0,0.0,58,0.00,,SKC,0.00,VWS V14.01,2013-02-12 10:44:00,
2013-02-12 05:50:00,42.0,28.7,30.00,West,278,2.0,0.0,59,0.00,,SKC,0.00,VWS V14.01,2013-02-12 10:50:00,
2013-02-12 05:56:00,41.8,28.5,30.00,West,278,0.0,0.0,59,0.00,,SKC,0.00,VWS V14.01,2013-02-12 10:56:00,
2013-02-12 06:01:00,41.6,28.4,30.00,West,278,0.0,0.0,59,0.00,,SKC,0.00,VWS V14.01,2013-02-12 11:01:00,
2013-02-12 06:06:00,41.5,28.3,30.00,West,278,0.0,0.0,59,0.00,,SKC,0.00,VWS V14.01,2013-02-12 11:06:00,
2013-02-12 06:12:00,41.5,28.3,30.00,West,278,0.0,0.0,59,0.00,,SKC,0.00,VWS V14.01,2013-02-12 11:12:00,
2013-02-12 06:18:00,41.4,28.6,30.00,West,277,0.0,0.0,60,0.00,,SKC,0.00,VWS V14.01,2013-02-12 11:18:00,
2013-02-12 06:24:00,41.5,28.3,30.01,West,274,0.0,0.0,59,0.00,,SKC,0.00,VWS V14.01,2013-02-12 11:24:00,
2013-02-12 06:30:00,41.8,28.5,30.01,WSW,252,0.0,0.0,59,0.00,,SKC,0.00,VWS V14.01,2013-02-12 11:30:00,
2013-02-12 06:36:00,41.4,27.8,30.01,WSW,252,0.0,0.0,58,0.00,,SKC,0.00,VWS V14.01,2013-02-12 11:36:00,
2013-02-12 06:41:00,41.4,27.8,30.01,WSW,252,0.0,0.0,58,0.00,,SKC,0.00,VWS V14.01,2013-02-12 11:41:00,
2013-02-12 06:46:00,41.2,27.6,30.01,WSW,252,0.0,0.0,58,0.00,,SKC,0.00,VWS V14.01,2013-02-12 11:46:00,
2013-02-12 06:51:00,40.9,28.1,30.01,WSW,252,0.0,0.0,60,0.00,,SKC,0.00,VWS V14.01,2013-02-12 11:51:00,
2013-02-12 06:56:00,40.3,27.9,30.01,WSW,252,0.0,0.0,61,0.00,,SKC,0.00,VWS V14.01,2013-02-12 11:56:00,
2013-02-12 07:01:00,39.6,27.7,30.01,WSW,252,0.0,0.0,62,0.00,,SKC,0.00,VWS V14.01,2013-02-12 12:01:00,
2013-02-12 07:06:00,39.2,27.7,30.01,WSW,252,0.0,0.0,63,0.00,,SKC,0.00,VWS V14.01,2013-02-12 12:06:00,
2013-02-12 07:12:00,39.4,27.9,30.02,SW,228,1.0,0.0,63,0.00,,SKC,0.00,VWS V14.01,2013-02-12 12:12:00,
2013-02-12 07:18:00,39.6,27.7,30.02,SW,217,1.0,0.0,62,0.00,,SKC,0.00,VWS V14.01,2013-02-12 12:18:00,
2013-02-12 07:24:00,39.8,27.5,30.02,SSW,193,0.0,0.0,61,0.00,,SKC,0.00,VWS V14.01,2013-02-12 12:24:00,
2013-02-12 07:30:00,40.4,27.6,30.02,WSW,248,0.0,0.0,60,0.00,,SKC,0.00,VWS V14.01,2013-02-12 12:30:00,
2013-02-12 07:36:00,40.9,27.3,30.02,WSW,253,0.0,0.0,58,0.00,,SKC,0.00,VWS V14.01,2013-02-12 12:36:00,
2013-02-12 07:41:00,41.2,28.0,30.02,WSW,252,0.0,0.0,59,0.00,,SKC,0.00,VWS V14.01,2013-02-12 12:41:00,
2013-02-12 07:46:00,41.5,28.3,30.02,WSW,246,0.0,0.0,59,0.00,,SKC,0.00,VWS V14.01,2013-02-12 12:46:00,
2013-02-12 07:51:00,41.9,28.6,30.02,WNW,294,0.0,0.0,59,0.00,,SKC,0.00,VWS V14.01,2013-02-12 12:51:00,
2013-02-12 07:56:00,42.2,28.9,30.03,SW,232,0.0,0.0,59,0.00,,SKC,0.00,VWS V14.01,2013-02-12 12:56:00,
2013-02-12 08:01:00,42.8,28.6,30.03,SW,221,0.0,0.0,57,0.00,,SKC,0.00,VWS V14.01,2013-02-12 13:01:00,
2013-02-12 08:06:00,43.7,28.6,30.03,SW,215,2.0,0.0,55,0.00,,SKC,0.00,VWS V14.01,2013-02-12 13:06:00,
2013-02-12 08:12:00,44.4,30.1,30.03,WSW,249,1.0,0.0,57,0.00,,SKC,0.00,VWS V14.01,2013-02-12 13:12:00,
2013-02-12 08:19:00,45.1,29.9,30.03,WSW,245,0.0,0.0,55,0.00,,SKC,0.00,VWS V14.01,2013-02-12 13:19:00,
2013-02-12 08:25:00,45.7,30.0,30.04,SSW,193,1.0,0.0,54,0.00,,SKC,0.00,VWS V14.01,2013-02-12 13:25:00,
2013-02-12 08:31:00,46.2,30.0,30.04,SW,232,1.0,0.0,53,0.00,,SKC,0.00,VWS V14.01,2013-02-12 13:31:00,
2013-02-12 08:36:00,46.4,29.8,30.04,NW,316,2.0,0.0,52,0.00,,SKC,0.00,VWS V14.01,2013-02-12 13:36:00,
2013-02-12 08:41:00,46.2,29.6,30.03,NW,319,1.0,0.0,52,0.00,,SKC,0.00,VWS V14.01,2013-02-12 13:41:00,
2013-02-12 08:46:00,46.4,31.1,30.03,WNW,301,1.0,0.0,55,0.00,,SKC,0.00,VWS V14.01,2013-02-12 13:46:00,
2013-02-12 08:51:00,46.7,29.5,30.04,West,279,1.0,0.0,51,0.00,,SKC,0.00,VWS V14.01,2013-02-12 13:51:00,
2013-02-12 08:56:00,46.7,29.5,30.05,West,264,2.0,0.0,51,0.00,,SKC,0.00,VWS V14.01,2013-02-12 13:56:00,
2013-02-12 09:01:00,47.2,31.0,30.05,WNW,287,1.0,0.0,53,0.00,,SKC,0.00,VWS V14.01,2013-02-12 14:01:00,
2013-02-12 09:06:00,47.8,29.1,30.05,WNW,287,1.0,0.0,48,0.00,,SKC,0.00,VWS V14.01,2013-02-12 14:06:00,
2013-02-12 09:11:00,48.0,29.3,30.05,WNW,285,1.0,0.0,48,0.00,,SKC,0.00,VWS V14.01,2013-02-12 14:11:00,
2013-02-12 09:16:00,48.6,29.3,30.04,West,271,4.0,0.0,47,0.00,,SKC,0.00,VWS V14.01,2013-02-12 14:16:00,
2013-02-12 09:21:00,48.8,30.0,30.04,West,276,0.0,0.0,48,0.00,,SKC,0.00,VWS V14.01,2013-02-12 14:21:00,
2013-02-12 09:26:00,49.4,31.1,30.04,WSW,244,2.0,0.0,49,0.00,,SKC,0.00,VWS V14.01,2013-02-12 14:26:00,
2013-02-12 09:31:00,49.2,29.3,30.04,NW,315,3.0,0.0,46,0.00,,SKC,0.00,VWS V14.01,2013-02-12 14:31:00,
2013-02-12 09:36:00,49.5,30.6,30.04,West,281,2.0,0.0,48,0.00,,SKC,0.00,VWS V14.01,2013-02-12 14:36:00,
2013-02-12 09:41:00,49.7,29.8,30.05,West,270,1.0,0.0,46,0.00,,SKC,0.00,VWS V14.01,2013-02-12 14:41:00,
2013-02-12 09:46:00,50.0,30.6,30.05,NW,321,3.0,0.0,47,0.00,,SKC,0.00,VWS V14.01,2013-02-12 14:46:00,
2013-02-12 09:51:00,50.5,30.5,30.05,NW,312,2.0,0.0,46,0.00,,SKC,0.00,VWS V14.01,2013-02-12 14:51:00,
2013-02-12 09:56:00,51.1,32.1,30.05,WSW,255,1.0,0.0,48,0.00,,SKC,0.00,VWS V14.01,2013-02-12 14:56:00,
2013-02-12 10:01:00,51.6,32.6,30.05,NW,318,3.0,0.0,48,0.00,,SKC,0.00,VWS V14.01,2013-02-12 15:01:00,
2013-02-12 10:06:00,51.6,29.9,30.06,WSW,257,3.0,0.0,43,0.00,,SKC,0.00,VWS V14.01,2013-02-12 15:06:00,
2013-02-12 10:11:00,51.9,30.1,30.06,WNW,285,2.0,0.0,43,0.00,,SKC,0.00,VWS V14.01,2013-02-12 15:11:00,
2013-02-12 10:16:00,51.7,29.4,30.06,West,279,2.0,0.0,42,0.00,,SKC,0.00,VWS V14.01,2013-02-12 15:16:00,
2013-02-12 10:21:00,51.6,29.9,30.06,WNW,283,3.0,0.0,43,0.00,,SKC,0.00,VWS V14.01,2013-02-12 15:21:00,
2013-02-12 10:26:00,51.7,29.9,30.06,NNW,333,2.0,0.0,43,0.00,,SKC,0.00,VWS V14.01,2013-02-12 15:26:00,
2013-02-12 10:31:00,51.8,29.5,30.06,WNW,291,2.0,0.0,42,0.00,,SKC,0.00,VWS V14.01,2013-02-12 15:31:00,
2013-02-12 10:36:00,52.0,29.6,30.06,NW,308,3.0,0.0,42,0.00,,SKC,0.00,VWS V14.01,2013-02-12 15:36:00,
2013-02-12 10:41:00,52.5,29.5,30.06,WSW,242,5.0,0.0,41,0.00,,SKC,0.00,VWS V14.01,2013-02-12 15:41:00,
2013-02-12 10:46:00,52.4,28.2,30.06,West,266,6.0,0.0,39,0.00,,SKC,0.00,VWS V14.01,2013-02-12 15:46:00,
2013-02-12 10:51:00,52.4,29.4,30.06,NNW,334,3.0,0.0,41,0.00,,SKC,0.00,VWS V14.01,2013-02-12 15:51:00,
2013-02-12 10:56:00,52.5,28.9,30.06,WNW,283,4.0,0.0,40,0.00,,SKC,0.00,VWS V14.01,2013-02-12 15:56:00,
2013-02-12 11:01:00,52.8,29.8,30.06,West,259,2.0,0.0,41,0.00,,SKC,0.00,VWS V14.01,2013-02-12 16:01:00,
2013-02-12 11:06:00,53.2,28.9,30.05,WNW,283,3.0,0.0,39,0.00,,SKC,0.00,VWS V14.01,2013-02-12 16:06:00,
2013-02-12 11:11:00,53.2,29.5,30.05,NNE,25,4.0,0.0,40,0.00,,SKC,0.00,VWS V14.01,2013-02-12 16:11:00,
2013-02-12 11:16:00,53.4,30.3,30.05,NNW,330,2.0,0.0,41,0.00,,SKC,0.00,VWS V14.01,2013-02-12 16:16:00,
2013-02-12 11:21:00,53.8,29.4,30.05,SW,230,2.0,0.0,39,0.00,,SKC,0.00,VWS V14.01,2013-02-12 16:21:00,
2013-02-12 11:27:00,53.8,30.1,30.04,WNW,293,3.0,0.0,40,0.00,,SKC,0.00,VWS V14.01,2013-02-12 16:27:00,
2013-02-12 11:34:00,54.2,29.2,30.03,West,269,2.0,0.0,38,0.00,,SKC,0.00,VWS V14.01,2013-02-12 16:34:00,
2013-02-12 11:40:00,54.5,29.4,30.03,WNW,288,1.0,0.0,38,0.00,,SKC,0.00,VWS V14.01,2013-02-12 16:40:00,
2013-02-12 11:46:00,55.0,29.9,30.03,NNW,343,2.0,0.0,38,0.00,,SKC,0.00,VWS V14.01,2013-02-12 16:46:00,
2013-02-12 11:51:00,55.3,31.4,30.02,WNW,291,2.0,0.0,40,0.00,,SKC,0.00,VWS V14.01,2013-02-12 16:51:00,
2013-02-12 11:56:00,55.4,30.2,30.02,WSW,248,1.0,0.0,38,0.00,,SKC,0.00,VWS V14.01,2013-02-12 16:56:00,
2013-02-12 12:04:00,55.4,28.2,30.00,NNW,340,3.0,0.0,35,0.00,,SKC,0.00,VWS V14.01,2013-02-12 17:04:00,
2013-02-12 12:10:00,55.3,28.1,30.00,NNW,339,3.0,0.0,35,0.00,,SKC,0.00,VWS V14.01,2013-02-12 17:10:00,
2013-02-12 12:15:00,55.3,28.1,29.99,NW,308,4.0,0.0,35,0.00,,SKC,0.00,VWS V14.01,2013-02-12 17:15:00,
2013-02-12 12:21:00,55.7,25.5,29.98,NW,316,2.0,0.0,31,0.00,,SKC,0.00,VWS V14.01,2013-02-12 17:21:00,
2013-02-12 12:26:00,56.0,28.8,29.98,NW,307,3.0,0.0,35,0.00,,SKC,0.00,VWS V14.01,2013-02-12 17:26:00,
2013-02-12 12:31:00,56.3,26.8,29.98,NW,313,3.0,0.0,32,0.00,,SKC,0.00,VWS V14.01,2013-02-12 17:31:00,
2013-02-12 12:36:00,56.1,25.9,29.98,North,354,4.0,0.0,31,0.00,,SKC,0.00,VWS V14.01,2013-02-12 17:36:00,
2013-02-12 12:41:00,56.3,30.4,29.98,NW,313,3.0,0.0,37,0.00,,SKC,0.00,VWS V14.01,2013-02-12 17:41:00,
2013-02-12 12:46:00,56.7,27.9,29.98,NNW,336,2.0,0.0,33,0.00,,SKC,0.00,VWS V14.01,2013-02-12 17:46:00,
2013-02-12 12:51:00,56.9,28.8,29.99,NW,307,2.0,0.0,34,0.00,,SKC,0.00,VWS V14.01,2013-02-12 17:51:00,
2013-02-12 12:56:00,57.4,27.8,29.98,West,262,3.0,0.0,32,0.00,,SKC,0.00,VWS V14.01,2013-02-12 17:56:00,
2013-02-12 13:01:00,57.5,27.9,29.99,SSW,207,2.0,0.0,32,0.00,,SKC,0.00,VWS V14.01,2013-02-12 18:01:00,
2013-02-12 13:06:00,57.4,27.0,29.98,NW,308,2.0,0.0,31,0.00,,SKC,0.00,VWS V14.01,2013-02-12 18:06:00,
2013-02-12 13:11:00,57.7,26.5,29.98,ESE,113,2.0,0.0,30,0.00,,SKC,0.00,VWS V14.01,2013-02-12 18:11:00,
2013-02-12 13:16:00,57.6,25.6,29.97,North,356,2.0,0.0,29,0.00,,SKC,0.00,VWS V14.01,2013-02-12 18:16:00,
2013-02-12 13:21:00,57.8,28.9,29.96,South,181,4.0,0.0,33,0.00,,SKC,0.00,VWS V14.01,2013-02-12 18:21:00,
2013-02-12 13:26:00,58.2,28.5,29.97,WSW,248,5.0,0.0,32,0.00,,SKC,0.00,VWS V14.01,2013-02-12 18:26:00,
2013-02-12 13:31:00,58.3,27.0,29.97,WNW,293,2.0,0.0,30,0.00,,SKC,0.00,VWS V14.01,2013-02-12 18:31:00,
2013-02-12 13:36:00,58.6,27.3,29.97,West,274,2.0,0.0,30,0.00,,SKC,0.00,VWS V14.01,2013-02-12 18:36:00,
2013-02-12 13:41:00,58.8,27.5,29.97,WNW,299,4.0,0.0,30,0.00,,SKC,0.00,VWS V14.01,2013-02-12 18:41:00,
2013-02-12 13:47:00,59.0,27.6,29.97,WNW,301,1.0,0.0,30,0.00,,SKC,0.00,VWS V14.01,2013-02-12 18:47:00,
2013-02-12 13:53:00,58.6,25.6,29.97,WNW,283,1.0,0.0,28,0.00,,SKC,0.00,VWS V14.01,2013-02-12 18:53:00,
2013-02-12 13:59:00,58.0,26.8,29.97,NNW,342,2.0,0.0,30,0.00,,SKC,0.00,VWS V14.01,2013-02-12 18:59:00,
2013-02-12 14:05:00,57.9,25.9,29.97,NW,313,3.0,0.0,29,0.00,,SKC,0.00,VWS V14.01,2013-02-12 19:05:00,
2013-02-12 14:11:00,58.2,26.9,29.97,WNW,293,0.0,0.0,30,0.00,,SKC,0.00,VWS V14.01,2013-02-12 19:11:00,
2013-02-12 14:16:00,58.5,27.2,29.97,South,186,3.0,0.0,30,0.00,,SKC,0.00,VWS V14.01,2013-02-12 19:16:00,
2013-02-12 14:21:00,58.3,27.8,29.97,SSW,212,1.0,0.0,31,0.00,,SKC,0.00,VWS V14.01,2013-02-12 19:21:00,
2013-02-12 14:28:00,57.7,26.5,29.97,SSE,162,1.0,0.0,30,0.00,,SKC,0.00,VWS V14.01,2013-02-12 19:28:00,
2013-02-12 14:34:00,57.6,28.0,29.96,WSW,246,1.0,0.0,32,0.00,,SKC,0.00,VWS V14.01,2013-02-12 19:34:00,
2013-02-12 14:40:00,57.7,27.3,29.96,West,277,1.0,0.0,31,0.00,,SKC,0.00,VWS V14.01,2013-02-12 19:40:00,
2013-02-12 14:46:00,57.5,27.1,29.96,West,260,1.0,0.0,31,0.00,,SKC,0.00,VWS V14.01,2013-02-12 19:46:00,
2013-02-12 14:51:00,57.4,27.8,29.96,NW,309,2.0,0.0,32,0.00,,SKC,0.00,VWS V14.01,2013-02-12 19:51:00,
2013-02-12 14:56:00,57.1,26.8,29.96,SW,230,1.0,0.0,31,0.00,,SKC,0.00,VWS V14.01,2013-02-12 19:56:00,
2013-02-12 15:01:00,56.9,27.4,29.96,West,270,1.0,0.0,32,0.00,,SKC,0.00,VWS V14.01,2013-02-12 20:01:00,
2013-02-12 15:06:00,56.9,29.5,29.96,South,186,2.0,0.0,35,0.00,,SKC,0.00,VWS V14.01,2013-02-12 20:06:00,
2013-02-12 15:11:00,56.9,28.8,29.96,SSW,204,2.0,0.0,34,0.00,,SKC,0.00,VWS V14.01,2013-02-12 20:11:00,
2013-02-12 15:16:00,56.6,27.1,29.95,WSW,252,2.0,0.0,32,0.00,,SKC,0.00,VWS V14.01,2013-02-12 20:16:00,
2013-02-12 15:21:00,56.3,26.8,29.95,SSW,194,6.0,0.0,32,0.00,,SKC,0.00,VWS V14.01,2013-02-12 20:21:00,
2013-02-12 15:26:00,56.1,27.4,29.95,SW,215,1.0,0.0,33,0.00,,SKC,0.00,VWS V14.01,2013-02-12 20:26:00,
2013-02-12 15:31:00,56.1,28.1,29.94,SW,235,0.0,0.0,34,0.00,,SKC,0.00,VWS V14.01,2013-02-12 20:31:00,
2013-02-12 15:36:00,56.1,27.4,29.94,SSW,212,2.0,0.0,33,0.00,,SKC,0.00,VWS V14.01,2013-02-12 20:36:00,
2013-02-12 15:41:00,56.1,28.1,29.94,South,176,0.0,0.0,34,0.00,,SKC,0.00,VWS V14.01,2013-02-12 20:41:00,
2013-02-12 15:46:00,56.0,28.0,29.94,SW,235,0.0,0.0,34,0.00,,SKC,0.00,VWS V14.01,2013-02-12 20:46:00,
2013-02-12 15:51:00,55.9,28.7,29.95,WNW,293,0.0,0.0,35,0.00,,SKC,0.00,VWS V14.01,2013-02-12 20:51:00,
2013-02-12 15:56:00,55.8,27.9,29.95,SW,214,2.0,0.0,34,0.00,,SKC,0.00,VWS V14.01,2013-02-12 20:56:00,
2013-02-12 16:01:00,55.7,27.8,29.96,SW,235,1.0,0.0,34,0.00,,SKC,0.00,VWS V14.01,2013-02-12 21:01:00,
2013-02-12 16:06:00,55.6,28.4,29.97,WSW,239,1.0,0.0,35,0.00,,SKC,0.00,VWS V14.01,2013-02-12 21:06:00,
2013-02-12 16:11:00,55.4,28.9,29.97,WSW,244,0.0,0.0,36,0.00,,SKC,0.00,VWS V14.01,2013-02-12 21:11:00,
2013-02-12 16:16:00,55.3,28.8,29.97,South,188,1.0,0.0,36,0.00,,SKC,0.00,VWS V14.01,2013-02-12 21:16:00,
2013-02-12 16:21:00,55.1,28.6,29.97,South,183,2.0,0.0,36,0.00,,SKC,0.00,VWS V14.01,2013-02-12 21:21:00,
2013-02-12 16:26:00,55.0,27.9,29.97,SW,234,0.0,0.0,35,0.00,,SKC,0.00,VWS V14.01,2013-02-12 21:26:00,
2013-02-12 16:31:00,54.9,27.8,29.96,SSW,208,0.0,0.0,35,0.00,,SKC,0.00,VWS V14.01,2013-02-12 21:31:00,
2013-02-12 16:36:00,54.8,27.7,29.97,SW,224,0.0,0.0,35,0.00,,SKC,0.00,VWS V14.01,2013-02-12 21:36:00,
2013-02-12 16:41:00,54.6,28.2,29.96,SW,222,0.0,0.0,36,0.00,,SKC,0.00,VWS V14.01,2013-02-12 21:41:00,
2013-02-12 16:46:00,54.3,27.9,29.96,SW,222,0.0,0.0,36,0.00,,SKC,0.00,VWS V14.01,2013-02-12 21:46:00,
2013-02-12 16:51:00,54.2,28.5,29.96,West,259,0.0,0.0,37,0.00,,SKC,0.00,VWS V14.01,2013-02-12 21:51:00,
2013-02-12 16:56:00,54.0,29.6,29.96,West,259,0.0,0.0,39,0.00,,SKC,0.00,VWS V14.01,2013-02-12 21:56:00,
2013-02-12 17:01:00,53.7,29.4,29.97,WSW,244,0.0,0.0,39,0.00,,SKC,0.00,VWS V14.01,2013-02-12 22:01:00,
2013-02-12 17:06:00,53.4,30.3,29.96,WSW,244,0.0,0.0,41,0.00,,SKC,0.00,VWS V14.01,2013-02-12 22:06:00,
2013-02-12 17:12:00,53.0,30.0,29.95,WSW,244,0.0,0.0,41,0.00,,SKC,0.00,VWS V14.01,2013-02-12 22:12:00,
2013-02-12 17:18:00,52.7,29.7,29.95,WSW,242,0.0,0.0,41,0.00,,SKC,0.00,VWS V14.01,2013-02-12 22:18:00,
2013-02-12 17:24:00,52.4,30.0,29.94,WSW,242,0.0,0.0,42,0.00,,SKC,0.00,VWS V14.01,2013-02-12 22:24:00,
2013-02-12 17:30:00,52.2,30.4,29.94,SW,226,0.0,0.0,43,0.00,,SKC,0.00,VWS V14.01,2013-02-12 22:30:00,
2013-02-12 17:36:00,51.8,30.0,29.94,SSW,210,0.0,0.0,43,0.00,,SKC,0.00,VWS V14.01,2013-02-12 22:36:00,
2013-02-12 17:41:00,51.7,29.9,29.94,SSW,210,1.0,0.0,43,0.00,,SKC,0.00,VWS V14.01,2013-02-12 22:41:00,
2013-02-12 17:46:00,51.8,29.5,29.95,SSW,211,0.0,0.0,42,0.00,,SKC,0.00,VWS V14.01,2013-02-12 22:46:00,
2013-02-12 17:51:00,51.8,29.5,29.95,SSW,210,0.0,0.0,42,0.00,,SKC,0.00,VWS V14.01,2013-02-12 22:51:00,
2013-02-12 17:56:00,51.5,30.9,29.94,SSW,211,0.0,0.0,45,0.00,,SKC,0.00,VWS V14.01,2013-02-12 22:56:00,
2013-02-12 18:01:00,51.2,32.2,29.93,SSW,211,0.0,0.0,48,0.00,,SKC,0.00,VWS V14.01,2013-02-12 23:01:00,
2013-02-12 18:06:00,50.8,30.8,29.94,SSW,211,0.0,0.0,46,0.00,,SKC,0.00,VWS V14.01,2013-02-12 23:06:00,
2013-02-12 18:11:00,50.5,30.0,29.95,SSW,210,0.0,0.0,45,0.00,,SKC,0.00,VWS V14.01,2013-02-12 23:11:00,
2013-02-12 18:16:00,50.7,29.6,29.95,SSW,211,0.0,0.0,44,0.00,,SKC,0.00,VWS V14.01,2013-02-12 23:16:00,
2013-02-12 18:21:00,50.9,29.8,29.95,SSW,211,0.0,0.0,44,0.00,,SKC,0.00,VWS V14.01,2013-02-12 23:21:00,
2013-02-12 18:26:00,50.8,30.2,29.94,SSW,211,0.0,0.0,45,0.00,,SKC,0.00,VWS V14.01,2013-02-12 23:26:00,
2013-02-12 18:31:00,50.5,32.6,29.93,SSW,211,0.0,0.0,50,0.00,,SKC,0.00,VWS V14.01,2013-02-12 23:31:00,
2013-02-12 18:37:00,50.0,32.1,29.92,SSW,211,0.0,0.0,50,0.00,,SKC,0.00,VWS V14.01,2013-02-12 23:37:00,
2013-02-12 18:43:00,49.6,32.2,29.92,SSW,211,0.0,0.0,51,0.00,,SKC,0.00,VWS V14.01,2013-02-12 23:43:00,
2013-02-12 18:49:00,49.4,32.5,29.92,SSW,211,0.0,0.0,52,0.00,,SKC,0.00,VWS V14.01,2013-02-12 23:49:00,
2013-02-12 18:55:00,49.5,32.6,29.93,SSW,211,0.0,0.0,52,0.00,,SKC,0.00,VWS V14.01,2013-02-12 23:55:00,
2013-02-12 19:01:00,49.4,32.0,29.92,SSW,211,0.0,0.0,51,0.00,,SKC,0.00,VWS V14.01,2013-02-13 00:01:00,
2013-02-12 19:07:00,49.3,33.4,29.92,SSW,211,0.0,0.0,54,0.00,,SKC,0.00,VWS V14.01,2013-02-13 00:07:00,
2013-02-12 19:13:00,49.2,33.7,29.91,SSW,211,0.0,0.0,55,0.00,,SKC,0.00,VWS V14.01,2013-02-13 00:13:00,
2013-02-12 19:19:00,49.0,33.5,29.90,SSW,211,0.0,0.0,55,0.00,,SKC,0.00,VWS V14.01,2013-02-13 00:19:00,
2013-02-12 19:25:00,48.8,33.8,29.90,SSW,211,0.0,0.0,56,0.00,,SKC,0.00,VWS V14.01,2013-02-13 00:25:00,
2013-02-12 19:31:00,48.7,34.2,29.90,SSW,211,0.0,0.0,57,0.00,,SKC,0.00,VWS V14.01,2013-02-13 00:31:00,
2013-02-12 19:36:00,48.6,34.1,29.90,SSW,211,0.0,0.0,57,0.00,,SKC,0.00,VWS V14.01,2013-02-13 00:36:00,
2013-02-12 19:41:00,48.5,34.0,29.89,SSW,211,0.0,0.0,57,0.00,,SKC,0.00,VWS V14.01,2013-02-13 00:41:00,
2013-02-12 19:46:00,48.6,31.8,29.89,SSW,211,0.0,0.0,52,0.00,,SKC,0.00,VWS V14.01,2013-02-13 00:46:00,
2013-02-12 19:51:00,48.8,33.4,29.90,SSW,210,0.0,0.0,55,0.00,,SKC,0.00,VWS V14.01,2013-02-13 00:51:00,
2013-02-12 19:57:00,49.0,33.1,29.90,SSW,211,0.0,0.0,54,0.00,,SKC,0.00,VWS V14.01,2013-02-13 00:57:00,
2013-02-12 20:03:00,49.2,30.9,29.91,SSW,212,0.0,0.0,49,0.00,,SKC,0.00,VWS V14.01,2013-02-13 01:03:00,
2013-02-12 20:09:00,49.7,31.3,29.91,WSW,252,0.0,0.0,49,0.00,,SKC,0.00,VWS V14.01,2013-02-13 01:09:00,
2013-02-12 20:15:00,49.8,32.4,29.92,WSW,252,0.0,0.0,51,0.00,,SKC,0.00,VWS V14.01,2013-02-13 01:15:00,
2013-02-12 20:21:00,49.6,33.2,29.94,WSW,252,0.0,0.0,53,0.00,,SKC,0.00,VWS V14.01,2013-02-13 01:21:00,
2013-02-12 20:26:00,49.5,32.6,29.94,WSW,252,0.0,0.0,52,0.00,,SKC,0.00,VWS V14.01,2013-02-13 01:26:00,
2013-02-12 20:31:00,49.5,33.1,29.94,WSW,250,0.0,0.0,53,0.00,,SKC,0.00,VWS V14.01,2013-02-13 01:31:00,
2013-02-12 20:36:00,49.3,33.4,29.94,WSW,250,0.0,0.0,54,0.00,,SKC,0.00,VWS V14.01,2013-02-13 01:36:00,
2013-02-12 20:41:00,49.1,32.7,29.95,WSW,250,0.0,0.0,53,0.00,,SKC,0.00,VWS V14.01,2013-02-13 01:41:00,
2013-02-12 20:46:00,49.1,31.8,29.95,WSW,250,0.0,0.0,51,0.00,,SKC,0.00,VWS V14.01,2013-02-13 01:46:00,
2013-02-12 20:51:00,49.2,32.3,29.95,WSW,250,0.0,0.0,52,0.00,,SKC,0.00,VWS V14.01,2013-02-13 01:51:00,
2013-02-12 20:56:00,49.3,32.0,29.96,WSW,250,0.0,0.0,51,0.00,,SKC,0.00,VWS V14.01,2013-02-13 01:56:00,
2013-02-12 21:01:00,49.2,33.7,29.95,WSW,250,0.0,0.0,55,0.00,,SKC,0.00,VWS V14.01,2013-02-13 02:01:00,
2013-02-12 21:06:00,48.8,33.4,29.96,WSW,250,0.0,0.0,55,0.00,,SKC,0.00,VWS V14.01,2013-02-13 02:06:00,
2013-02-12 21:11:00,48.8,35.1,29.96,WSW,252,0.0,0.0,59,0.00,,SKC,0.00,VWS V14.01,2013-02-13 02:11:00,
2013-02-12 21:16:00,48.6,34.9,29.96,West,277,0.0,0.0,59,0.00,,SKC,0.00,VWS V14.01,2013-02-13 02:16:00,
2013-02-12 21:21:00,48.7,34.6,29.96,West,277,0.0,0.0,58,0.00,,SKC,0.00,VWS V14.01,2013-02-13 02:21:00,
2013-02-12 21:26:00,48.6,34.9,29.96,WNW,295,1.0,0.0,59,0.00,,SKC,0.00,VWS V14.01,2013-02-13 02:26:00,
2013-02-12 21:31:00,48.7,35.0,29.96,NW,309,2.0,0.0,59,0.00,,SKC,0.00,VWS V14.01,2013-02-13 02:31:00,
2013-02-12 21:36:00,48.5,35.3,29.96,WNW,302,1.0,0.0,60,0.00,,SKC,0.00,VWS V14.01,2013-02-13 02:36:00,
2013-02-12 21:42:00,48.3,35.5,29.95,WNW,302,0.0,0.0,61,0.00,,SKC,0.00,VWS V14.01,2013-02-13 02:42:00,
2013-02-12 21:48:00,48.3,35.5,29.96,WNW,302,0.0,0.0,61,0.00,,SKC,0.00,VWS V14.01,2013-02-13 02:48:00,
2013-02-12 21:54:00,48.9,34.8,29.97,SW,217,2.0,0.0,58,0.00,,SKC,0.00,VWS V14.01,2013-02-13 02:54:00,
2013-02-12 22:00:00,49.5,34.5,29.97,SSW,211,0.0,0.0,56,0.00,,SKC,0.00,VWS V14.01,2013-02-13 03:00:00,
2013-02-12 22:06:00,49.8,34.3,29.97,NW,311,1.0,0.0,55,0.00,,SKC,0.00,VWS V14.01,2013-02-13 03:06:00,
2013-02-12 22:11:00,50.0,34.5,29.97,WSW,250,0.0,0.0,55,0.00,,SKC,0.00,VWS V14.01,2013-02-13 03:11:00,
2013-02-12 22:16:00,49.9,34.4,29.97,SSE,162,0.0,0.0,55,0.00,,SKC,0.00,VWS V14.01,2013-02-13 03:16:00,
2013-02-12 22:21:00,49.8,34.8,29.96,SW,220,4.0,0.0,56,0.00,,SKC,0.00,VWS V14.01,2013-02-13 03:21:00,
2013-02-12 22:26:00,50.3,34.8,29.97,SW,217,4.0,0.0,55,0.00,,SKC,0.00,VWS V14.01,2013-02-13 03:26:00,
2013-02-12 22:31:00,50.4,37.0,29.96,WSW,244,0.0,0.0,60,0.00,,SKC,0.00,VWS V14.01,2013-02-13 03:31:00,
2013-02-12 22:36:00,49.9,36.6,29.95,SW,219,1.0,0.0,60,0.00,,SKC,0.00,VWS V14.01,2013-02-13 03:36:00,
2013-02-12 22:41:00,49.5,37.4,29.94,WSW,240,0.0,0.0,63,0.00,,SKC,0.00,VWS V14.01,2013-02-13 03:41:00,
2013-02-12 22:46:00,49.0,37.4,29.94,WSW,242,0.0,0.0,64,0.00,,SKC,0.00,VWS V14.01,2013-02-13 03:46:00,
2013-02-12 22:52:00,48.5,37.7,29.94,WSW,244,0.0,0.0,66,0.00,,SKC,0.00,VWS V14.01,2013-02-13 03:52:00,
2013-02-12 22:58:00,48.1,38.0,29.95,WSW,242,0.0,0.0,68,0.00,,SKC,0.00,VWS V14.01,2013-02-13 03:58:00,
2013-02-12 23:04:00,47.9,38.2,29.94,West,271,1.0,0.0,69,0.00,,SKC,0.00,VWS V14.01,2013-02-13 04:04:00,
2013-02-12 23:10:00,47.8,38.5,29.94,West,277,1.0,0.0,70,0.00,,SKC,0.00,VWS V14.01,2013-02-13 04:10:00,
2013-02-12 23:16:00,47.6,38.3,29.92,NNW,339,3.0,0.0,70,0.00,,SKC,0.00,VWS V14.01,2013-02-13 04:16:00,
2013-02-12 23:22:00,47.5,38.6,29.93,NW,316,2.0,0.0,71,0.00,,SKC,0.00,VWS V14.01,2013-02-13 04:22:00,
2013-02-12 23:28:00,47.3,38.7,29.93,NW,324,1.0,0.0,72,0.00,,SKC,0.00,VWS V14.01,2013-02-13 04:28:00,
2013-02-12 23:34:00,47.0,38.8,29.94,NW,312,2.0,0.0,73,0.00,,SKC,0.00,VWS V14.01,2013-02-13 04:34:00,
2013-02-12 23:40:00,46.9,39.4,29.94,NW,307,1.0,0.0,75,0.00,,SKC,0.00,VWS V14.01,2013-02-13 04:40:00,
2013-02-12 23:46:00,46.7,39.2,29.93,NW,307,1.0,0.0,75,0.00,,SKC,0.00,VWS V14.01,2013-02-13 04:46:00,
2013-02-12 23:51:00,46.7,39.2,29.93,NNW,336,1.0,0.0,75,0.00,,SKC,0.00,VWS V14.01,2013-02-13 04:51:00,
2013-02-12 23:56:00,46.7,39.2,29.92,NNW,345,2.0,0.0,75,0.00,,SKC,0.00,VWS V14.01,2013-02-13 04:56:00,